Content
SEND FEEDBACK

Daily
Averages
Monthly
Summary
United States of America

POTTS JUNCTION, GUAM


Home > North America > United States > Guam
Elevation: 110 meters     Latitude: 13 33N     Longitude: 144 50E

WEATHER
 
SELECT A DAY
Number of Records: 213,081;   Date Range: 1/1/95 - 9/30/14
 
SHARE

PRINT THIS DATA

[ ← Previous Day ]
WEATHER ALMANAC - 5 OCTOBER, 2013
[ Next Day → ]
[ °F ]   °C
Weather ElementAverageHighLow
Temperature28.1 °C30 °C (10:54 am)25.6 °C (5:54 am)
Dewpoint25.1 °C26.1 °C (9:54 am)24.4 °C (3:54 am)
Humidity83.8 %94 % (1:54 am)74 % (11:54 am)
Barometer1004.7 hPa1006.8 hPa (9:54 pm)1003.4 hPa (3:54 am)
Wind Speed12.1 km/h22.2 km/h (3:06 pm)
Wind Gust31.5 km/h (10:54 am)
Weather ElementAverage
Visibility16.1 km
Wind DirectionSE (134.6 °)

Weather ElementTotal
Precipitation0.76 mm
Cooling Degree Days9.5 (Base 18.3)
Growing Degree Days17.8 (Base 10)
Averaged from 28 records on 5 October, 2013
WEATHER CONDITIONS BREAKOUT
WIND DIRECTION BREAKOUT
WEATHER BY HOUR - 5 OCTOBER, 2013
[ °F ]   °C
Local TimeTemperatureDewpointHumidityBarometerVisibilityWind DirectionWind SpeedGust SpeedPrecipitationEventsConditions
1:54 AM26.1 °C25 °C94 %1003.7 hPa16.1 kmCalmClear
2:54 AM26.1 °C25 °C94 %1003.7 hPa16.1 kmSSE (160°)7.4 km/hClear
3:54 AM26.1 °C24.4 °C90 %1003.4 hPa16.1 kmSouth (180°)7.4 km/hClear
4:54 AM26.1 °C25 °C94 %1003.4 hPa16.1 kmCalmClear
5:54 AM25.6 °C24.4 °C93 %1003.7 hPa16.1 kmSSE (160°)5.6 km/hClear
6:54 AM26.7 °C25 °C90 %1004.1 hPa16.1 kmCalmClear
7:54 AM28.3 °C25.6 °C85 %1004.7 hPa16.1 kmSouth (180°)5.6 km/hClear
8:54 AM28.9 °C25 °C79 %1005.1 hPa16.1 kmSouth (190°)9.3 km/hMostly Cloudy
9:15 AM29 °C25 °C79 %1006.1 hPa16.1 kmSouth (180°)16.7 km/hScattered Clouds
9:54 AM28.9 °C26.1 °C85 %1005.8 hPa16.1 kmSSE (150°)9.3 km/h0 mmMostly Cloudy
10:54 AM30 °C25.6 °C77 %1005.4 hPa16.1 kmSE (140°)20.4 km/h31.5 km/h0 mmPartly Cloudy
11:54 AM29.4 °C24.4 °C74 %1005.1 hPa16.1 kmSSE (160°)13 km/hClear
12:35 PM29 °C26 °C84 %1005.1 hPa16.1 kmESE (120°)14.8 km/h0.25 mmMostly Cloudy
12:45 PM29 °C26 °C84 %1005.1 hPa16.1 kmSE (140°)16.7 km/h0.25 mmPartly Cloudy
12:54 PM28.9 °C25.6 °C82 %1004.1 hPa16.1 kmSE (130°)13 km/h0.25 mmPartly Cloudy
1:43 PM29 °C26 °C84 %1004.7 hPa16.1 kmSE (130°)16.7 km/hThunderstormMostly Cloudy
1:54 PM29.4 °C25.6 °C80 %1003.7 hPa16.1 kmSE (140°)16.7 km/hMostly Cloudy
2:54 PM28.3 °C25.6 °C85 %1003.4 hPa16.1 kmESE (120°)18.5 km/h31.5 km/hMostly Cloudy
3:06 PM28 °C25 °C84 %1004.1 hPa16.1 kmESE (110°)22.2 km/h29.6 km/hPartly Cloudy
3:54 PM29.4 °C25 °C77 %1003.4 hPa16.1 kmSSE (150°)20.4 km/hScattered Clouds
4:54 PM29.4 °C24.4 °C74 %1003.7 hPa16.1 kmSSE (150°)16.7 km/hScattered Clouds
5:54 PM28.3 °C25 °C82 %1004.7 hPa16.1 kmSSE (150°)14.8 km/hScattered Clouds
6:54 PM27.8 °C25 °C85 %1005.1 hPa16.1 kmSSE (160°)14.8 km/hScattered Clouds
7:54 PM27.8 °C25 °C85 %1005.8 hPa16.1 kmSouth (170°)11.1 km/hScattered Clouds
8:54 PM27.8 °C24.4 °C82 %1006.4 hPa16.1 kmSSE (150°)11.1 km/hPartly Cloudy
9:54 PM27.8 °C24.4 °C82 %1006.8 hPa16.1 kmSE (140°)7.4 km/hPartly Cloudy
10:54 PM28.3 °C24.4 °C79 %1006.8 hPa16.1 kmSSE (160°)14.8 km/hScattered Clouds
11:54 PM27.8 °C24.4 °C82 %1006.1 hPa16.1 kmSSE (150°)13 km/hPartly Cloudy
Hourly data recorded from PGUM, located 0 kilometers away from Potts Junction, Guam







STORIES FROM OUR PARTNERS